{"data":{"norad_id":45179,"epoch":"2026-05-25T00:00:02.000160Z","epoch_age_seconds":65199,"freshness":"FRESH","line1":"1 45179U 20012B   26145.00002315  .00149832  00000+0  65178-3 0  9996","line2":"2 45179  53.0366 310.9142 0003770 311.1222  28.0202 15.83857530  6005","mean_motion":15.8385753,"eccentricity":0.000377,"inclination_deg":53.0366,"raan_deg":310.9142,"arg_perigee_deg":311.1222,"mean_anomaly_deg":28.0202,"bstar":0.00065178,"rev_number":600,"period_min":90.917268297484,"perigee_km":317.01856228262,"apogee_km":322.06861344587,"semimajor_km":6697.6805878642,"source":"CELESTRAK","updated_at":"2026-05-25T13:38:16.381205Z"}}